Location: Southlake
(32.9412°N, 97.1342°W)
Time: 09:29:53
(UTC+00:00)

CZ-2C R/B - Pass Details

Date: 03 December 2021
Orbit: 784 x 870 km, 98.2° (Epoch: 27 January)

Event Time Altitude Azimuth Distance (km) Brightness Sun altitude
Rises 12:23:49 0° 186° (S) 3,425 6.1 -10.8°
Reaches altitude 10° 12:26:22 10° 193° (SSW) 2,484 5.2 -10.3°
Maximum altitude 12:31:29 39° 262° (W) 1,252 3.2 -9.3°
Drops below altitude 10° 12:36:33 10° 330° (NNW) 2,450 4.7 -8.3°
Sets 12:39:03 0° 338° (NNW) 3,373 5.4 -7.8°
